Year,Month,Day,Hour,Minute,Value (Times are PST for temperature in C)
2013,03,31,00,00,6.40
2013,03,31,00,01,6.40
2013,03,31,00,02,6.40
2013,03,31,00,03,6.40
2013,03,31,00,04,6.40
2013,03,31,00,05,6.40
2013,03,31,00,06,6.30
2013,03,31,00,07,6.30
2013,03,31,00,08,6.30
2013,03,31,00,09,6.20
2013,03,31,00,10,6.20
2013,03,31,00,11,6.20
2013,03,31,00,12,6.20
2013,03,31,00,13,6.20
2013,03,31,00,14,6.20
2013,03,31,00,15,6.20
2013,03,31,00,16,6.20
2013,03,31,00,17,6.10
2013,03,31,00,18,6.10
2013,03,31,00,19,6.10
2013,03,31,00,20,6.10
2013,03,31,00,21,6.20
2013,03,31,00,22,6.20
2013,03,31,00,23,6.20
2013,03,31,00,24,6.20
2013,03,31,00,25,6.20
2013,03,31,00,26,6.20
2013,03,31,00,27,6.20
2013,03,31,00,28,6.20
2013,03,31,00,29,6.20
2013,03,31,00,30,6.20
2013,03,31,00,31,6.20
2013,03,31,00,32,6.20
2013,03,31,00,33,6.20
2013,03,31,00,34,6.20
2013,03,31,00,35,6.20
2013,03,31,00,36,6.20
2013,03,31,00,37,6.10
2013,03,31,00,38,6.10
2013,03,31,00,39,6.10
2013,03,31,00,40,6.10
2013,03,31,00,41,6.10
2013,03,31,00,42,6.10
2013,03,31,00,43,6.00
2013,03,31,00,44,6.00
2013,03,31,00,45,6.00
2013,03,31,00,46,5.90
2013,03,31,00,47,5.90
2013,03,31,00,48,5.90
2013,03,31,00,49,5.80
2013,03,31,00,50,5.80
2013,03,31,00,51,5.80
2013,03,31,00,52,5.80
2013,03,31,00,53,5.70
2013,03,31,00,54,5.70
2013,03,31,00,55,5.70
2013,03,31,00,56,5.70
2013,03,31,00,57,5.70
2013,03,31,00,58,5.70
2013,03,31,00,59,5.70
2013,03,31,01,00,5.70
2013,03,31,01,01,5.70
2013,03,31,01,02,5.70
2013,03,31,01,03,5.60
2013,03,31,01,04,5.60
2013,03,31,01,05,5.60
2013,03,31,01,06,5.60
2013,03,31,01,07,5.60
2013,03,31,01,08,5.50
2013,03,31,01,09,5.50
2013,03,31,01,10,5.50
2013,03,31,01,11,5.50
2013,03,31,01,12,5.50
2013,03,31,01,13,5.50
2013,03,31,01,14,5.50
2013,03,31,01,15,5.50
2013,03,31,01,16,5.50
2013,03,31,01,17,5.50
2013,03,31,01,18,5.40
2013,03,31,01,19,5.40
2013,03,31,01,20,5.40
2013,03,31,01,21,5.40
2013,03,31,01,22,5.40
2013,03,31,01,23,5.40
2013,03,31,01,24,5.30
2013,03,31,01,25,5.30
2013,03,31,01,26,5.30
2013,03,31,01,27,5.30
2013,03,31,01,28,5.30
2013,03,31,01,29,5.30
2013,03,31,01,30,5.30
2013,03,31,01,31,5.30
2013,03,31,01,32,5.30
2013,03,31,01,33,5.30
2013,03,31,01,34,5.30
2013,03,31,01,35,5.30
2013,03,31,01,36,5.30
2013,03,31,01,37,5.30
2013,03,31,01,38,5.30
2013,03,31,01,39,5.30
2013,03,31,01,40,5.20
2013,03,31,01,41,5.20
2013,03,31,01,42,5.20
2013,03,31,01,43,5.20
2013,03,31,01,44,5.10
2013,03,31,01,45,5.10
2013,03,31,01,46,5.10
2013,03,31,01,47,5.10
2013,03,31,01,48,5.10
2013,03,31,01,49,5.10
2013,03,31,01,50,5.10
2013,03,31,01,51,5.00
2013,03,31,01,52,4.90
2013,03,31,01,53,4.90
2013,03,31,01,54,4.90
2013,03,31,01,55,4.90
2013,03,31,01,56,4.90
2013,03,31,01,57,4.90
2013,03,31,01,58,4.90
2013,03,31,01,59,4.90
2013,03,31,02,00,4.90
2013,03,31,02,01,4.90
2013,03,31,02,02,4.90
2013,03,31,02,03,4.90
2013,03,31,02,04,4.90
2013,03,31,02,05,4.90
2013,03,31,02,06,4.90
2013,03,31,02,07,4.90
2013,03,31,02,08,4.90
2013,03,31,02,09,4.90
2013,03,31,02,10,4.90
2013,03,31,02,11,4.90
2013,03,31,02,12,4.90
2013,03,31,02,13,4.90
2013,03,31,02,14,4.90
2013,03,31,02,15,4.90
2013,03,31,02,16,4.90
2013,03,31,02,17,4.90
2013,03,31,02,18,4.90
2013,03,31,02,19,4.80
2013,03,31,02,20,4.80
2013,03,31,02,21,4.80
2013,03,31,02,22,4.80
2013,03,31,02,23,4.80
2013,03,31,02,24,4.80
2013,03,31,02,25,4.70
2013,03,31,02,26,4.70
2013,03,31,02,27,4.70
2013,03,31,02,28,4.70
2013,03,31,02,29,4.70
2013,03,31,02,30,4.70
2013,03,31,02,31,4.70
2013,03,31,02,32,4.70
2013,03,31,02,33,4.70
2013,03,31,02,34,4.70
2013,03,31,02,35,4.70
2013,03,31,02,36,4.60
2013,03,31,02,37,4.60
2013,03,31,02,38,4.60
2013,03,31,02,39,4.60
2013,03,31,02,40,4.60
2013,03,31,02,41,4.60
2013,03,31,02,42,4.60
2013,03,31,02,43,4.60
2013,03,31,02,44,4.60
2013,03,31,02,45,4.60
2013,03,31,02,46,4.60
2013,03,31,02,47,4.60
2013,03,31,02,48,4.60
2013,03,31,02,49,4.60
2013,03,31,02,50,4.60
2013,03,31,02,51,4.60
2013,03,31,02,52,4.60
2013,03,31,02,53,4.50
2013,03,31,02,54,4.50
2013,03,31,02,55,4.50
2013,03,31,02,56,4.50
2013,03,31,02,57,4.50
2013,03,31,02,58,4.50
2013,03,31,02,59,4.50
2013,03,31,03,00,4.50
2013,03,31,03,01,4.50
2013,03,31,03,02,4.50
2013,03,31,03,03,4.40
2013,03,31,03,04,4.40
2013,03,31,03,05,4.40
2013,03,31,03,06,4.40
2013,03,31,03,07,4.40
2013,03,31,03,08,4.40
2013,03,31,03,09,4.40
2013,03,31,03,10,4.40
2013,03,31,03,11,4.40
2013,03,31,03,12,4.30
2013,03,31,03,13,4.30
2013,03,31,03,14,4.30
2013,03,31,03,15,4.30
2013,03,31,03,16,4.30
2013,03,31,03,17,4.30
2013,03,31,03,18,4.30
2013,03,31,03,19,4.30
2013,03,31,03,20,4.30
2013,03,31,03,21,4.30
2013,03,31,03,22,4.20
2013,03,31,03,23,4.20
2013,03,31,03,24,4.20
2013,03,31,03,25,4.20
2013,03,31,03,26,4.20
2013,03,31,03,27,4.20
2013,03,31,03,28,4.10
2013,03,31,03,29,4.10
2013,03,31,03,30,4.10
2013,03,31,03,31,4.10
2013,03,31,03,32,4.00
2013,03,31,03,33,4.00
2013,03,31,03,34,4.00
2013,03,31,03,35,4.10
2013,03,31,03,36,4.10
2013,03,31,03,37,4.10
2013,03,31,03,38,4.10
2013,03,31,03,39,4.10
2013,03,31,03,40,4.10
2013,03,31,03,41,4.10
2013,03,31,03,42,4.10
2013,03,31,03,43,4.10
2013,03,31,03,44,4.00
2013,03,31,03,45,4.00
2013,03,31,03,46,4.00
2013,03,31,03,47,4.00
2013,03,31,03,48,4.00
2013,03,31,03,49,4.00
2013,03,31,03,50,4.00
2013,03,31,03,51,4.00
2013,03,31,03,52,4.00
2013,03,31,03,53,4.00
2013,03,31,03,54,3.90
2013,03,31,03,55,3.90
2013,03,31,03,56,3.90
2013,03,31,03,57,3.90
2013,03,31,03,58,4.00
2013,03,31,03,59,4.00
2013,03,31,04,00,4.00
2013,03,31,04,01,4.00
2013,03,31,04,02,4.00
2013,03,31,04,03,4.00
2013,03,31,04,04,4.00
2013,03,31,04,05,4.00
2013,03,31,04,06,4.00
2013,03,31,04,07,4.00
2013,03,31,04,08,4.00
2013,03,31,04,09,4.00
2013,03,31,04,10,4.00
2013,03,31,04,11,4.00
2013,03,31,04,12,4.00
2013,03,31,04,13,4.00
2013,03,31,04,14,4.00
2013,03,31,04,15,4.00
2013,03,31,04,16,4.00
2013,03,31,04,17,3.90
2013,03,31,04,18,3.90
2013,03,31,04,19,3.90
2013,03,31,04,20,3.90
2013,03,31,04,21,3.90
2013,03,31,04,22,3.90
2013,03,31,04,23,3.90
2013,03,31,04,24,3.90
2013,03,31,04,25,3.90
2013,03,31,04,26,3.90
2013,03,31,04,27,3.90
2013,03,31,04,28,3.90
2013,03,31,04,29,3.90
2013,03,31,04,30,3.90
2013,03,31,04,31,3.90
2013,03,31,04,32,3.90
2013,03,31,04,33,3.90
2013,03,31,04,34,3.90
2013,03,31,04,35,3.90
2013,03,31,04,36,3.90
2013,03,31,04,37,3.90
2013,03,31,04,38,3.90
2013,03,31,04,39,3.90
2013,03,31,04,40,3.90
2013,03,31,04,41,4.00
2013,03,31,04,42,4.00
2013,03,31,04,43,4.00
2013,03,31,04,44,4.00
2013,03,31,04,45,4.00
2013,03,31,04,46,4.00
2013,03,31,04,47,4.00
2013,03,31,04,48,4.00
2013,03,31,04,49,4.00
2013,03,31,04,50,4.00
2013,03,31,04,51,4.00
2013,03,31,04,52,4.00
2013,03,31,04,53,4.00
2013,03,31,04,54,4.00
2013,03,31,04,55,4.00
2013,03,31,04,56,4.00
2013,03,31,04,57,4.00
2013,03,31,04,58,3.90
2013,03,31,04,59,3.90
2013,03,31,05,00,3.90
2013,03,31,05,01,3.80
2013,03,31,05,02,3.80
2013,03,31,05,03,3.80
2013,03,31,05,04,3.80
2013,03,31,05,05,3.80
2013,03,31,05,06,3.80
2013,03,31,05,07,3.80
2013,03,31,05,08,3.80
2013,03,31,05,09,3.80
2013,03,31,05,10,3.80
2013,03,31,05,11,3.80
2013,03,31,05,12,3.90
2013,03,31,05,13,3.90
2013,03,31,05,14,3.90
2013,03,31,05,15,3.90
2013,03,31,05,16,3.90
2013,03,31,05,17,3.90
2013,03,31,05,18,3.90
2013,03,31,05,19,4.00
2013,03,31,05,20,4.00
2013,03,31,05,21,4.00
2013,03,31,05,22,4.00
2013,03,31,05,23,4.00
2013,03,31,05,24,4.00
2013,03,31,05,25,4.10
2013,03,31,05,26,4.10
2013,03,31,05,27,4.10
2013,03,31,05,28,4.10
2013,03,31,05,29,4.10
2013,03,31,05,30,4.10
2013,03,31,05,31,4.20
2013,03,31,05,32,4.20
2013,03,31,05,33,4.20
2013,03,31,05,34,4.20
2013,03,31,05,35,4.20
2013,03,31,05,36,4.20
2013,03,31,05,37,4.20
2013,03,31,05,38,4.20
2013,03,31,05,39,4.20
2013,03,31,05,40,4.20
2013,03,31,05,41,4.20
2013,03,31,05,42,4.20
2013,03,31,05,43,4.20
2013,03,31,05,44,4.20
2013,03,31,05,45,4.20
2013,03,31,05,46,4.20
2013,03,31,05,47,4.20
2013,03,31,05,48,4.10
2013,03,31,05,49,4.10
2013,03,31,05,50,4.00
2013,03,31,05,51,4.00
2013,03,31,05,52,3.90
2013,03,31,05,53,3.90
2013,03,31,05,54,3.90
2013,03,31,05,55,3.80
2013,03,31,05,56,3.80
2013,03,31,05,57,3.80
2013,03,31,05,58,3.80
2013,03,31,05,59,3.80
2013,03,31,06,00,3.80
2013,03,31,06,01,3.80
2013,03,31,06,02,3.80
2013,03,31,06,03,3.80
2013,03,31,06,04,3.70
2013,03,31,06,05,3.80
2013,03,31,06,06,3.80
2013,03,31,06,07,3.80
2013,03,31,06,08,3.80
2013,03,31,06,09,3.80
2013,03,31,06,10,3.80
2013,03,31,06,11,3.80
2013,03,31,06,12,3.80
2013,03,31,06,13,3.80
2013,03,31,06,14,3.80
2013,03,31,06,15,3.80
2013,03,31,06,16,3.80
2013,03,31,06,17,3.80
2013,03,31,06,18,3.80
2013,03,31,06,19,3.80
2013,03,31,06,20,3.80
2013,03,31,06,21,3.80
2013,03,31,06,22,3.80
2013,03,31,06,23,3.90
2013,03,31,06,24,3.90
2013,03,31,06,25,3.90
2013,03,31,06,26,3.90
2013,03,31,06,27,3.90
2013,03,31,06,28,3.80
2013,03,31,06,29,3.80
2013,03,31,06,30,3.80
2013,03,31,06,31,3.80
2013,03,31,06,32,3.80
2013,03,31,06,33,3.80
2013,03,31,06,34,3.80
2013,03,31,06,35,3.80
2013,03,31,06,36,3.80
2013,03,31,06,37,3.80
2013,03,31,06,38,3.80
2013,03,31,06,39,3.80
2013,03,31,06,40,3.80
2013,03,31,06,41,3.70
2013,03,31,06,42,3.70
2013,03,31,06,43,3.70
2013,03,31,06,44,3.70
2013,03,31,06,45,3.70
2013,03,31,06,46,3.70
2013,03,31,06,47,3.70
2013,03,31,06,48,3.70
2013,03,31,06,49,3.70
2013,03,31,06,50,3.70
2013,03,31,06,51,3.70
2013,03,31,06,52,3.70
2013,03,31,06,53,3.70
2013,03,31,06,54,3.70
2013,03,31,06,55,3.70
2013,03,31,06,56,3.70
2013,03,31,06,57,3.70
2013,03,31,06,58,3.70
2013,03,31,06,59,3.70
2013,03,31,07,00,3.60
2013,03,31,07,01,3.60
2013,03,31,07,02,3.60
2013,03,31,07,03,3.60
2013,03,31,07,04,3.60
2013,03,31,07,05,3.60
2013,03,31,07,06,3.60
2013,03,31,07,07,3.60
2013,03,31,07,08,3.60
2013,03,31,07,09,3.60
2013,03,31,07,10,3.60
2013,03,31,07,11,3.70
2013,03,31,07,12,3.70
2013,03,31,07,13,3.70
2013,03,31,07,14,3.70
2013,03,31,07,15,3.70
2013,03,31,07,16,3.70
2013,03,31,07,17,3.70
2013,03,31,07,18,3.70
2013,03,31,07,19,3.70
2013,03,31,07,20,3.70
2013,03,31,07,21,3.80
2013,03,31,07,22,3.80
2013,03,31,07,23,3.80
2013,03,31,07,24,3.80
2013,03,31,07,25,3.90
2013,03,31,07,26,4.00
2013,03,31,07,27,4.00
2013,03,31,07,28,4.10
2013,03,31,07,29,4.20
2013,03,31,07,30,4.20
2013,03,31,07,31,4.20
2013,03,31,07,32,4.30
2013,03,31,07,33,4.40
2013,03,31,07,34,4.50
2013,03,31,07,35,4.50
2013,03,31,07,36,4.60
2013,03,31,07,37,4.60
2013,03,31,07,38,4.70
2013,03,31,07,39,4.70
2013,03,31,07,40,4.80
2013,03,31,07,41,4.90
2013,03,31,07,42,4.90
2013,03,31,07,43,4.90
2013,03,31,07,44,4.90
2013,03,31,07,45,5.10
2013,03,31,07,46,5.10
2013,03,31,07,47,5.10
2013,03,31,07,48,5.10
2013,03,31,07,49,5.10
2013,03,31,07,50,5.10
2013,03,31,07,51,5.10
2013,03,31,07,52,5.20
2013,03,31,07,53,5.20
2013,03,31,07,54,5.30
2013,03,31,07,55,5.30
2013,03,31,07,56,5.40
2013,03,31,07,57,5.50
2013,03,31,07,58,5.60
2013,03,31,07,59,5.70
2013,03,31,08,00,5.90
2013,03,31,08,01,6.00
2013,03,31,08,02,6.10
2013,03,31,08,03,6.20
2013,03,31,08,04,6.20
2013,03,31,08,05,6.30
2013,03,31,08,06,6.40
2013,03,31,08,07,6.50
2013,03,31,08,08,6.60
2013,03,31,08,09,6.70
2013,03,31,08,10,6.80
2013,03,31,08,11,6.80
2013,03,31,08,12,6.90
2013,03,31,08,13,7.00
2013,03,31,08,14,7.10
2013,03,31,08,15,7.20
2013,03,31,08,16,7.20
2013,03,31,08,17,7.30
2013,03,31,08,18,7.40
2013,03,31,08,19,7.50
2013,03,31,08,20,7.60
2013,03,31,08,21,7.70
2013,03,31,08,22,7.80
2013,03,31,08,23,7.80
2013,03,31,08,24,7.90
2013,03,31,08,25,8.00
2013,03,31,08,26,8.00
2013,03,31,08,27,8.20
2013,03,31,08,28,8.30
2013,03,31,08,29,8.40
2013,03,31,08,30,8.50
2013,03,31,08,31,8.60
2013,03,31,08,32,8.60
2013,03,31,08,33,8.60
2013,03,31,08,34,8.60
2013,03,31,08,35,8.50
2013,03,31,08,36,8.50
2013,03,31,08,37,8.40
2013,03,31,08,38,8.30
2013,03,31,08,39,8.20
2013,03,31,08,40,8.20
2013,03,31,08,41,8.10
2013,03,31,08,42,8.10
2013,03,31,08,43,8.20
2013,03,31,08,44,8.20
2013,03,31,08,45,8.30
2013,03,31,08,46,8.40
2013,03,31,08,47,8.50
2013,03,31,08,48,8.50
2013,03,31,08,49,8.60
2013,03,31,08,50,8.80
2013,03,31,08,51,9.00
2013,03,31,08,52,9.20
2013,03,31,08,53,9.40
2013,03,31,08,54,9.50
2013,03,31,08,55,9.60
2013,03,31,08,56,9.70
2013,03,31,08,57,9.90
2013,03,31,08,58,10.00
2013,03,31,08,59,10.10
2013,03,31,09,00,10.30
2013,03,31,09,01,10.40
2013,03,31,09,02,10.50
2013,03,31,09,03,10.60
2013,03,31,09,04,10.70
2013,03,31,09,05,10.80
2013,03,31,09,06,10.90
2013,03,31,09,07,11.10
2013,03,31,09,08,11.10
2013,03,31,09,09,11.20
2013,03,31,09,10,11.30
2013,03,31,09,11,11.40
2013,03,31,09,12,11.50
2013,03,31,09,13,11.60
2013,03,31,09,14,11.70
2013,03,31,09,15,11.80
2013,03,31,09,16,11.80
2013,03,31,09,17,11.90
2013,03,31,09,18,12.00
2013,03,31,09,19,12.10
2013,03,31,09,20,12.10
2013,03,31,09,21,12.20
2013,03,31,09,22,12.30
2013,03,31,09,23,12.30
2013,03,31,09,24,12.30
2013,03,31,09,25,12.30
2013,03,31,09,26,12.30
2013,03,31,09,27,12.30
2013,03,31,09,28,12.30
2013,03,31,09,29,12.40
2013,03,31,09,30,12.40
2013,03,31,09,31,12.40
2013,03,31,09,32,12.50
2013,03,31,09,33,12.50
2013,03,31,09,34,12.60
2013,03,31,09,35,12.70
2013,03,31,09,36,12.70
2013,03,31,09,37,12.80
2013,03,31,09,38,12.80
2013,03,31,09,39,12.80
2013,03,31,09,40,12.90
2013,03,31,09,41,12.90
2013,03,31,09,42,13.00
2013,03,31,09,43,13.00
2013,03,31,09,44,13.10
2013,03,31,09,45,13.20
2013,03,31,09,46,13.20
2013,03,31,09,47,13.20
2013,03,31,09,48,13.30
2013,03,31,09,49,13.30
2013,03,31,09,50,13.30
2013,03,31,09,51,13.40
2013,03,31,09,52,13.40
2013,03,31,09,53,13.50
2013,03,31,09,54,13.60
2013,03,31,09,55,13.70
2013,03,31,09,56,13.70
2013,03,31,09,57,13.80
2013,03,31,09,58,13.80
2013,03,31,09,59,13.90
2013,03,31,10,00,13.90
2013,03,31,10,01,13.90
2013,03,31,10,02,13.90
2013,03,31,10,03,13.90
2013,03,31,10,04,13.90
2013,03,31,10,05,13.90
2013,03,31,10,06,13.90
2013,03,31,10,07,13.90
2013,03,31,10,08,14.00
2013,03,31,10,09,14.00
2013,03,31,10,10,14.00
2013,03,31,10,11,14.10
2013,03,31,10,12,14.10
2013,03,31,10,13,14.20
2013,03,31,10,14,14.20
2013,03,31,10,15,14.20
2013,03,31,10,16,14.20
2013,03,31,10,17,14.20
2013,03,31,10,18,14.20
2013,03,31,10,19,14.20
2013,03,31,10,20,14.20
2013,03,31,10,21,14.30
2013,03,31,10,22,14.40
2013,03,31,10,23,14.40
2013,03,31,10,24,14.40
2013,03,31,10,25,14.40
2013,03,31,10,26,14.30
2013,03,31,10,27,14.30
2013,03,31,10,28,14.30
2013,03,31,10,29,14.30
2013,03,31,10,30,14.40
2013,03,31,10,31,14.50
2013,03,31,10,32,14.60
2013,03,31,10,33,14.60
2013,03,31,10,34,14.60
2013,03,31,10,35,14.60
2013,03,31,10,36,14.60
2013,03,31,10,37,14.60
2013,03,31,10,38,14.70
2013,03,31,10,39,14.70
2013,03,31,10,40,14.80
2013,03,31,10,41,14.80
2013,03,31,10,42,14.80
2013,03,31,10,43,14.80
2013,03,31,10,44,14.90
2013,03,31,10,45,14.90
2013,03,31,10,46,14.90
2013,03,31,10,47,14.90
2013,03,31,10,48,14.90
2013,03,31,10,49,14.90
2013,03,31,10,50,15.00
2013,03,31,10,51,15.00
2013,03,31,10,52,15.10
2013,03,31,10,53,15.10
2013,03,31,10,54,15.10
2013,03,31,10,55,15.10
2013,03,31,10,56,15.10
2013,03,31,10,57,15.00
2013,03,31,10,58,15.00
2013,03,31,10,59,15.00
2013,03,31,11,00,15.00
2013,03,31,11,01,15.00
2013,03,31,11,02,15.00
2013,03,31,11,03,15.10
2013,03,31,11,04,15.20
2013,03,31,11,05,15.20
2013,03,31,11,06,15.20
2013,03,31,11,07,15.30
2013,03,31,11,08,15.30
2013,03,31,11,09,15.30
2013,03,31,11,10,15.30
2013,03,31,11,11,15.40
2013,03,31,11,12,15.50
2013,03,31,11,13,15.50
2013,03,31,11,14,15.50
2013,03,31,11,15,15.40
2013,03,31,11,16,15.30
2013,03,31,11,17,15.30
2013,03,31,11,18,15.40
2013,03,31,11,19,15.40
2013,03,31,11,20,15.50
2013,03,31,11,21,15.50
2013,03,31,11,22,15.60
2013,03,31,11,23,15.70
2013,03,31,11,24,15.80
2013,03,31,11,25,15.80
2013,03,31,11,26,15.90
2013,03,31,11,27,16.10
2013,03,31,11,28,16.10
2013,03,31,11,29,16.10
2013,03,31,11,30,16.10
2013,03,31,11,31,16.10
2013,03,31,11,32,16.10
2013,03,31,11,33,16.10
2013,03,31,11,34,16.10
2013,03,31,11,35,16.10
2013,03,31,11,36,16.10
2013,03,31,11,37,16.10
2013,03,31,11,38,16.10
2013,03,31,11,39,16.20
2013,03,31,11,40,16.30
2013,03,31,11,41,16.40
2013,03,31,11,42,16.40
2013,03,31,11,43,16.40
2013,03,31,11,44,16.40
2013,03,31,11,45,16.60
2013,03,31,11,46,16.60
2013,03,31,11,47,16.70
2013,03,31,11,48,16.70
2013,03,31,11,49,16.70
2013,03,31,11,50,16.70
2013,03,31,11,51,16.70
2013,03,31,11,52,16.70
2013,03,31,11,53,16.70
2013,03,31,11,54,16.70
2013,03,31,11,55,16.70
2013,03,31,11,56,16.70
2013,03,31,11,57,16.70
2013,03,31,11,58,16.70
2013,03,31,11,59,16.80
2013,03,31,12,00,16.80
2013,03,31,12,01,16.90
2013,03,31,12,02,16.90
2013,03,31,12,03,16.90
2013,03,31,12,04,16.80
2013,03,31,12,05,16.70
2013,03,31,12,06,16.70
2013,03,31,12,07,16.70
2013,03,31,12,08,16.70
2013,03,31,12,09,16.70
2013,03,31,12,10,16.90
2013,03,31,12,11,16.90
2013,03,31,12,12,17.00
2013,03,31,12,13,17.10
2013,03,31,12,14,17.20
2013,03,31,12,15,17.10
2013,03,31,12,16,17.10
2013,03,31,12,17,17.10
2013,03,31,12,18,17.10
2013,03,31,12,19,17.10
2013,03,31,12,20,17.10
2013,03,31,12,21,17.10
2013,03,31,12,22,17.20
2013,03,31,12,23,17.10
2013,03,31,12,24,17.00
2013,03,31,12,25,17.10
2013,03,31,12,26,17.10
2013,03,31,12,27,17.10
2013,03,31,12,28,17.20
2013,03,31,12,29,17.20
2013,03,31,12,30,17.30
2013,03,31,12,31,17.20
2013,03,31,12,32,17.10
2013,03,31,12,33,17.00
2013,03,31,12,34,17.00
2013,03,31,12,35,16.90
2013,03,31,12,36,16.90
2013,03,31,12,37,16.90
2013,03,31,12,38,16.90
2013,03,31,12,39,17.00
2013,03,31,12,40,17.00
2013,03,31,12,41,17.10
2013,03,31,12,42,17.20
2013,03,31,12,43,17.20
2013,03,31,12,44,17.20
2013,03,31,12,45,17.30
2013,03,31,12,46,17.30
2013,03,31,12,47,17.30
2013,03,31,12,48,17.30
2013,03,31,12,49,17.30
2013,03,31,12,50,17.40
2013,03,31,12,51,17.40
2013,03,31,12,52,17.40
2013,03,31,12,53,17.50
2013,03,31,12,54,17.50
2013,03,31,12,55,17.50
2013,03,31,12,56,17.60
2013,03,31,12,57,17.70
2013,03,31,12,58,17.80
2013,03,31,12,59,17.80
2013,03,31,13,00,17.90
2013,03,31,13,01,17.90
2013,03,31,13,02,17.90
2013,03,31,13,03,17.90
2013,03,31,13,04,17.90
2013,03,31,13,05,17.80
2013,03,31,13,06,17.80
2013,03,31,13,07,17.80
2013,03,31,13,08,17.80
2013,03,31,13,09,17.80
2013,03,31,13,10,17.90
2013,03,31,13,11,17.90
2013,03,31,13,12,17.80
2013,03,31,13,13,17.70
2013,03,31,13,14,17.50
2013,03,31,13,15,17.50
2013,03,31,13,16,17.40
2013,03,31,13,17,17.40
2013,03,31,13,18,17.40
2013,03,31,13,19,17.50
2013,03,31,13,20,17.60
2013,03,31,13,21,17.70
2013,03,31,13,22,17.80
2013,03,31,13,23,17.90
2013,03,31,13,24,18.00
2013,03,31,13,25,18.10
2013,03,31,13,26,18.20
2013,03,31,13,27,18.20
2013,03,31,13,28,18.10
2013,03,31,13,29,18.10
2013,03,31,13,30,18.10
2013,03,31,13,31,18.10
2013,03,31,13,32,18.10
2013,03,31,13,33,18.00
2013,03,31,13,34,17.90
2013,03,31,13,35,17.90
2013,03,31,13,36,18.00
2013,03,31,13,37,18.10
2013,03,31,13,38,18.10
2013,03,31,13,39,18.20
2013,03,31,13,40,18.20
2013,03,31,13,41,18.20
2013,03,31,13,42,18.20
2013,03,31,13,43,18.20
2013,03,31,13,44,18.30
2013,03,31,13,45,18.30
2013,03,31,13,46,18.20
2013,03,31,13,47,18.30
2013,03,31,13,48,18.30
2013,03,31,13,49,18.30
2013,03,31,13,50,18.30
2013,03,31,13,51,18.40
2013,03,31,13,52,18.40
2013,03,31,13,53,18.50
2013,03,31,13,54,18.50
2013,03,31,13,55,18.50
2013,03,31,13,56,18.60
2013,03,31,13,57,18.70
2013,03,31,13,58,18.80
2013,03,31,13,59,18.80
2013,03,31,14,00,18.80
2013,03,31,14,01,18.80
2013,03,31,14,02,18.80
2013,03,31,14,03,18.80
2013,03,31,14,04,18.90
2013,03,31,14,05,18.90
2013,03,31,14,06,18.90
2013,03,31,14,07,18.90
2013,03,31,14,08,19.00
2013,03,31,14,09,19.10
2013,03,31,14,10,19.10
2013,03,31,14,11,19.10
2013,03,31,14,12,19.10
2013,03,31,14,13,19.10
2013,03,31,14,14,19.00
2013,03,31,14,15,18.90
2013,03,31,14,16,18.80
2013,03,31,14,17,18.80
2013,03,31,14,18,18.80
2013,03,31,14,19,18.90
2013,03,31,14,20,18.90
2013,03,31,14,21,18.90
2013,03,31,14,22,18.90
2013,03,31,14,23,18.90
2013,03,31,14,24,18.80
2013,03,31,14,25,18.70
2013,03,31,14,26,18.70
2013,03,31,14,27,18.80
2013,03,31,14,28,18.80
2013,03,31,14,29,18.80
2013,03,31,14,30,18.80
2013,03,31,14,31,18.80
2013,03,31,14,32,18.90
2013,03,31,14,33,19.00
2013,03,31,14,34,19.10
2013,03,31,14,35,19.20
2013,03,31,14,36,19.20
2013,03,31,14,37,19.20
2013,03,31,14,38,19.30
2013,03,31,14,39,19.30
2013,03,31,14,40,19.50
2013,03,31,14,41,19.60
2013,03,31,14,42,19.60
2013,03,31,14,43,19.60
2013,03,31,14,44,19.70
2013,03,31,14,45,19.70
2013,03,31,14,46,19.70
2013,03,31,14,47,19.60
2013,03,31,14,48,19.50
2013,03,31,14,49,19.50
2013,03,31,14,50,19.50
2013,03,31,14,51,19.50
2013,03,31,14,52,19.50
2013,03,31,14,53,19.60
2013,03,31,14,54,19.60
2013,03,31,14,55,19.70
2013,03,31,14,56,19.70
2013,03,31,14,57,19.60
2013,03,31,14,58,19.50
2013,03,31,14,59,19.50
2013,03,31,15,00,19.50
2013,03,31,15,01,19.50
2013,03,31,15,02,19.60
2013,03,31,15,03,19.60
2013,03,31,15,04,19.60
2013,03,31,15,05,19.70
2013,03,31,15,06,19.70
2013,03,31,15,07,19.70
2013,03,31,15,08,19.80
2013,03,31,15,09,19.80
2013,03,31,15,10,19.90
2013,03,31,15,11,19.90
2013,03,31,15,12,19.50
2013,03,31,15,13,18.90
2013,03,31,15,14,18.40
2013,03,31,15,15,18.00
2013,03,31,15,16,17.60
2013,03,31,15,17,17.40
2013,03,31,15,18,17.20
2013,03,31,15,19,17.20
2013,03,31,15,20,17.20
2013,03,31,15,21,17.10
2013,03,31,15,22,17.10
2013,03,31,15,23,17.10
2013,03,31,15,24,17.10
2013,03,31,15,25,17.30
2013,03,31,15,26,17.40
2013,03,31,15,27,17.50
2013,03,31,15,28,17.50
2013,03,31,15,29,17.70
2013,03,31,15,30,17.70
2013,03,31,15,31,17.90
2013,03,31,15,32,18.00
2013,03,31,15,33,18.10
2013,03,31,15,34,18.30
2013,03,31,15,35,18.40
2013,03,31,15,36,18.50
2013,03,31,15,37,18.60
2013,03,31,15,38,18.80
2013,03,31,15,39,19.00
2013,03,31,15,40,19.20
2013,03,31,15,41,19.40
2013,03,31,15,42,19.60
2013,03,31,15,43,19.80
2013,03,31,15,44,19.70
2013,03,31,15,45,19.40
2013,03,31,15,46,19.00
2013,03,31,15,47,18.80
2013,03,31,15,48,18.70
2013,03,31,15,49,18.50
2013,03,31,15,50,18.40
2013,03,31,15,51,18.40
2013,03,31,15,52,18.30
2013,03,31,15,53,18.20
2013,03,31,15,54,18.00
2013,03,31,15,55,17.80
2013,03,31,15,56,17.50
2013,03,31,15,57,17.10
2013,03,31,15,58,16.80
2013,03,31,15,59,16.70
2013,03,31,16,00,16.70
2013,03,31,16,01,16.70
2013,03,31,16,02,16.60
2013,03,31,16,03,16.70
2013,03,31,16,04,16.90
2013,03,31,16,05,17.00
2013,03,31,16,06,17.00
2013,03,31,16,07,17.00
2013,03,31,16,08,16.90
2013,03,31,16,09,16.80
2013,03,31,16,10,16.80
2013,03,31,16,11,16.80
2013,03,31,16,12,16.90
2013,03,31,16,13,16.90
2013,03,31,16,14,16.90
2013,03,31,16,15,16.70
2013,03,31,16,16,16.60
2013,03,31,16,17,16.40
2013,03,31,16,18,16.40
2013,03,31,16,19,16.40
2013,03,31,16,20,16.40
2013,03,31,16,21,16.60
2013,03,31,16,22,16.70
2013,03,31,16,23,16.70
2013,03,31,16,24,16.70
2013,03,31,16,25,16.80
2013,03,31,16,26,16.90
2013,03,31,16,27,17.00
2013,03,31,16,28,17.00
2013,03,31,16,29,17.10
2013,03,31,16,30,17.20
2013,03,31,16,31,17.20
2013,03,31,16,32,17.30
2013,03,31,16,33,17.30
2013,03,31,16,34,17.30
2013,03,31,16,35,17.30
2013,03,31,16,36,17.30
2013,03,31,16,37,17.20
2013,03,31,16,38,17.00
2013,03,31,16,39,17.00
2013,03,31,16,40,16.90
2013,03,31,16,41,16.90
2013,03,31,16,42,16.90
2013,03,31,16,43,16.90
2013,03,31,16,44,17.00
2013,03,31,16,45,17.00
2013,03,31,16,46,17.10
2013,03,31,16,47,17.30
2013,03,31,16,48,17.40
2013,03,31,16,49,17.50
2013,03,31,16,50,17.60
2013,03,31,16,51,17.70
2013,03,31,16,52,17.80
2013,03,31,16,53,17.90
2013,03,31,16,54,17.90
2013,03,31,16,55,17.80
2013,03,31,16,56,17.80
2013,03,31,16,57,17.80
2013,03,31,16,58,17.80
2013,03,31,16,59,17.80
2013,03,31,17,00,17.80
2013,03,31,17,01,17.90
2013,03,31,17,02,17.90
2013,03,31,17,03,17.90
2013,03,31,17,04,17.90
2013,03,31,17,05,17.90
2013,03,31,17,06,17.90
2013,03,31,17,07,17.80
2013,03,31,17,08,17.80
2013,03,31,17,09,17.80
2013,03,31,17,10,17.80
2013,03,31,17,11,17.80
2013,03,31,17,12,17.80
2013,03,31,17,13,17.80
2013,03,31,17,14,17.70
2013,03,31,17,15,17.50
2013,03,31,17,16,17.40
2013,03,31,17,17,17.30
2013,03,31,17,18,17.20
2013,03,31,17,19,17.10
2013,03,31,17,20,17.10
2013,03,31,17,21,17.10
2013,03,31,17,22,17.00
2013,03,31,17,23,16.90
2013,03,31,17,24,16.80
2013,03,31,17,25,16.80
2013,03,31,17,26,16.70
2013,03,31,17,27,16.70
2013,03,31,17,28,16.80
2013,03,31,17,29,16.80
2013,03,31,17,30,16.90
2013,03,31,17,31,17.00
2013,03,31,17,32,17.10
2013,03,31,17,33,17.10
2013,03,31,17,34,17.10
2013,03,31,17,35,17.10
2013,03,31,17,36,17.20
2013,03,31,17,37,17.30
2013,03,31,17,38,17.30
2013,03,31,17,39,17.20
2013,03,31,17,40,17.10
2013,03,31,17,41,17.10
2013,03,31,17,42,17.00